| time (UTC) | temp F | wind direction | speed MPH | gust MPH | rain 1hr in | rain 24hr in | rain mn in | humidity % | barometer mb |
| 20260904170731 | 60 | 67 | 5.0 | 14.0 | 0.00 | 0.44 | 0.18 | 86 | 1007.3 |
| 20260904170231 | 60 | 70 | 6.0 | 12.0 | 0.00 | 0.44 | 0.18 | 89 | 1007.2 |
| 20260904165731 | 60 | 63 | 6.0 | 12.0 | 0.00 | 0.44 | 0.18 | 89 | 1007.3 |
| 20260904165231 | 60 | 53 | 7.0 | 13.0 | 0.00 | 0.44 | 0.18 | 88 | 1007.2 |
| 20260904164731 | 60 | 50 | 5.0 | 13.0 | 0.00 | 0.44 | 0.18 | 90 | 1007.2 |
| 20260904164231 | 59 | 51 | 9.0 | 13.0 | 0.00 | 0.44 | 0.18 | 90 | 1007.2 |
| 20260904163731 | 59 | 71 | 5.0 | 13.0 | 0.00 | 0.44 | 0.18 | 94 | 1007.1 |
| 20260904163231 | 58 | 56 | 10.0 | 13.0 | 0.00 | 0.46 | 0.18 | 93 | 1007.1 |
| 20260904162731 | 57 | 61 | 6.0 | 13.0 | 0.00 | 0.46 | 0.18 | 95 | 1007.1 |
| 20260904162231 | 57 | 51 | 6.0 | 12.0 | 0.00 | 0.46 | 0.18 | 95 | 1007.2 |
| 20260904161731 | 57 | 61 | 5.0 | 11.0 | 0.00 | 0.46 | 0.18 | 95 | 1007.2 |
| 20260904161231 | 57 | 71 | 9.0 | 11.0 | 0.00 | 0.46 | 0.18 | 95 | 1007.2 |
| 20260904160731 | 57 | 57 | 7.0 | 10.0 | 0.00 | 0.46 | 0.18 | 96 | 1007.1 |
| 20260904160231 | 57 | 53 | 7.0 | 12.0 | 0.00 | 0.46 | 0.18 | 96 | 1007.1 |
| 20260904155731 | 57 | 64 | 7.0 | 12.0 | 0.00 | 0.46 | 0.18 | 96 | 1007.1 |
| 20260904155231 | 57 | 81 | 6.0 | 12.0 | 0.00 | 0.46 | 0.18 | 96 | 1007.1 |
| 20260904154731 | 57 | 56 | 4.0 | 11.0 | 0.00 | 0.46 | 0.18 | 96 | 1007.1 |
| 20260904154231 | 57 | 47 | 8.0 | 12.0 | 0.00 | 0.46 | 0.18 | 96 | 1007.0 |
| 20260904153732 | 57 | 82 | 1.0 | 12.0 | 0.00 | 0.46 | 0.18 | 96 | 1007.0 |
| 20260904153231 | 56 | 77 | 6.0 | 12.0 | 0.00 | 0.52 | 0.18 | 96 | 1006.9 |
| 20260904152731 | 56 | 63 | 6.0 | 11.0 | 0.00 | 0.52 | 0.18 | 97 | 1006.9 |
| 20260904152231 | 56 | 54 | 8.0 | 12.0 | 0.00 | 0.52 | 0.18 | 97 | 1006.8 |
| 20260904151731 | 56 | 63 | 0.0 | 12.0 | 0.00 | 0.52 | 0.18 | 97 | 1006.7 |
| 20260904151231 | 56 | 47 | 4.0 | 12.0 | 0.00 | 0.52 | 0.18 | 97 | 1006.7 |
| 20260904150731 | 56 | 49 | 5.0 | 13.0 | 0.00 | 0.52 | 0.18 | 96 | 1006.6 |
| 20260904150231 | 56 | 56 | 5.0 | 13.0 | 0.00 | 0.52 | 0.18 | 97 | 1006.5 |
| 20260904145731 | 56 | 82 | 6.0 | 13.0 | 0.00 | 0.52 | 0.18 | 97 | 1006.5 |
| 20260904145231 | 56 | 58 | 8.0 | 14.0 | 0.00 | 0.52 | 0.18 | 97 | 1006.4 |
| 20260904144731 | 56 | 49 | 6.0 | 14.0 | 0.00 | 0.52 | 0.18 | 97 | 1006.2 |
| 20260904144231 | 56 | 74 | 9.0 | 14.0 | 0.00 | 0.52 | 0.18 | 97 | 1006.2 |
| 20260904143731 | 56 | 54 | 9.0 | 12.0 | 0.00 | 0.52 | 0.18 | 97 | 1006.1 |
| 20260904143231 | 56 | 72 | 10.0 | 14.0 | 0.00 | 0.70 | 0.18 | 97 | 1006.0 |
| 20260904142732 | 56 | 57 | 6.0 | 14.0 | 0.00 | 0.70 | 0.18 | 97 | 1005.9 |
| 20260904142231 | 56 | 53 | 8.0 | 14.0 | 0.00 | 0.70 | 0.18 | 98 | 1005.9 |
| 20260904141731 | 55 | 61 | 7.0 | 14.0 | 0.00 | 0.70 | 0.18 | 98 | 1005.9 |
| 20260904141231 | 56 | 58 | 7.0 | 14.0 | 0.00 | 0.70 | 0.18 | 98 | 1005.8 |
| 20260904140733 | 56 | 60 | 7.0 | 13.0 | 0.00 | 0.70 | 0.18 | 98 | 1005.8 |
| 20260904140231 | 56 | 68 | 6.0 | 13.0 | 0.00 | 0.70 | 0.18 | 98 | 1005.7 |
| 20260904135731 | 55 | 49 | 4.0 | 13.0 | 0.00 | 0.70 | 0.18 | 98 | 1005.6 |
| 20260904135231 | 56 | 67 | 6.0 | 12.0 | 0.00 | 0.70 | 0.18 | 98 | 1005.5 |
| 20260904134731 | 55 | 49 | 7.0 | 12.0 | 0.00 | 0.70 | 0.18 | 98 | 1005.5 |
| 20260904134231 | 55 | 63 | 4.0 | 14.0 | 0.00 | 0.70 | 0.18 | 98 | 1005.4 |
| 20260904133731 | 55 | 58 | 2.0 | 14.0 | 0.00 | 0.70 | 0.18 | 98 | 1005.3 |
| 20260904133232 | 55 | 42 | 9.0 | 14.0 | 0.00 | 0.77 | 0.18 | 98 | 1005.3 |
| 20260904132731 | 55 | 61 | 8.0 | 14.0 | 0.00 | 0.77 | 0.18 | 98 | 1005.3 |
| 20260904132231 | 55 | 57 | 7.0 | 14.0 | 0.00 | 0.77 | 0.18 | 98 | 1005.3 |
| 20260904131731 | 55 | 33 | 7.0 | 14.0 | 0.00 | 0.77 | 0.18 | 98 | 1005.3 |
| 20260904131231 | 55 | 58 | 4.0 | 13.0 | 0.00 | 0.77 | 0.18 | 98 | 1005.2 |
| 20260904130731 | 55 | 60 | 2.0 | 13.0 | 0.00 | 0.77 | 0.18 | 98 | 1005.1 |
| 20260904130231 | 55 | 77 | 7.0 | 13.0 | 0.00 | 0.77 | 0.18 | 98 | 1005.2 |
| 20260904125731 | 55 | 60 | 9.0 | 13.0 | 0.00 | 0.77 | 0.18 | 98 | 1005.1 |
| 20260904125230 | 55 | 67 | 4.0 | 13.0 | 0.00 | 0.77 | 0.18 | 98 | 1005.0 |
| 20260904124730 | 55 | 60 | 6.0 | 14.0 | 0.00 | 0.77 | 0.18 | 98 | 1005.0 |
| 20260904124231 | 55 | 56 | 5.0 | 14.0 | 0.00 | 0.77 | 0.18 | 98 | 1004.9 |
| 20260904123731 | 55 | 33 | 6.0 | 14.0 | 0.00 | 0.77 | 0.18 | 98 | 1004.9 |
| 20260904123230 | 55 | 60 | 7.0 | 10.0 | 0.00 | 0.77 | 0.18 | 98 | 1004.8 |
| 20260904122731 | 55 | 54 | 2.0 | 10.0 | 0.00 | 0.77 | 0.18 | 98 | 1004.8 |
| 20260904122230 | 56 | 46 | 4.0 | 9.0 | 0.00 | 0.77 | 0.18 | 98 | 1004.8 |
| 20260904121731 | 56 | 64 | 1.0 | 9.0 | 0.00 | 0.77 | 0.18 | 98 | 1004.7 |
| 20260904121230 | 56 | 54 | 3.0 | 9.0 | 0.00 | 0.77 | 0.18 | 98 | 1004.8 |
| 20260904120731 | 56 | 51 | 2.0 | 9.0 | 0.00 | 0.77 | 0.18 | 97 | 1004.8 |
| 20260904120230 | 56 | 54 | 0.0 | 9.0 | 0.00 | 0.77 | 0.18 | 97 | 1004.8 |
| 20260904115732 | 56 | 53 | 6.0 | 8.0 | 0.00 | 0.77 | 0.18 | 97 | 1004.9 |
| 20260904115231 | 56 | 86 | 1.0 | 8.0 | 0.00 | 0.77 | 0.18 | 97 | 1004.8 |
| 20260904114731 | 56 | 61 | 0.0 | 7.0 | 0.00 | 0.77 | 0.18 | 97 | 1004.8 |
| 20260904114230 | 56 | 56 | 0.0 | 7.0 | 0.00 | 0.77 | 0.18 | 97 | 1004.7 |
| 20260904113731 | 56 | 77 | 0.0 | 7.0 | 0.00 | 0.77 | 0.18 | 97 | 1004.7 |
| 20260904113230 | 56 | 51 | 2.0 | 10.0 | 0.00 | 0.78 | 0.18 | 97 | 1004.7 |
| 20260904112731 | 56 | 0 | 0.0 | 10.0 | 0.00 | 0.78 | 0.18 | 97 | 1004.7 |
| 20260904112230 | 56 | 99 | 0.0 | 10.0 | 0.00 | 0.78 | 0.18 | 97 | 1004.6 |
| 20260904111731 | 56 | 51 | 4.0 | 11.0 | 0.00 | 0.78 | 0.18 | 97 | 1004.6 |
| 20260904111230 | 56 | 57 | 7.0 | 11.0 | 0.00 | 0.78 | 0.18 | 97 | 1004.5 |
| 20260904110731 | 56 | 64 | 8.0 | 11.0 | 0.00 | 0.78 | 0.18 | 97 | 1004.5 |
| 20260904110230 | 56 | 63 | 3.0 | 9.0 | 0.00 | 0.78 | 0.18 | 97 | 1004.6 |
| 20260904105731 | 56 | 60 | 0.0 | 9.0 | 0.00 | 0.78 | 0.18 | 97 | 1004.5 |
| 20260904105231 | 56 | 54 | 4.0 | 7.0 | 0.00 | 0.78 | 0.18 | 96 | 1004.5 |
| 20260904104735 | 56 | 65 | 0.0 | 7.0 | 0.00 | 0.78 | 0.18 | 96 | 1004.5 |
| 20260904104230 | 56 | 61 | 1.0 | 7.0 | 0.00 | 0.78 | 0.18 | 96 | 1004.5 |
| 20260904103731 | 56 | 0 | 0.0 | 7.0 | 0.00 | 0.78 | 0.18 | 96 | 1004.5 |
| 20260904103232 | 56 | 65 | 0.0 | 9.0 | 0.00 | 0.92 | 0.18 | 96 | 1004.5 |
| 20260904102731 | 56 | 57 | 6.0 | 9.0 | 0.00 | 0.92 | 0.18 | 96 | 1004.5 |
| 20260904102230 | 56 | 44 | 3.0 | 9.0 | 0.00 | 0.92 | 0.18 | 96 | 1004.4 |
| 20260904101731 | 56 | 56 | 5.0 | 8.0 | 0.00 | 0.92 | 0.18 | 96 | 1004.4 |
| 20260904101230 | 56 | 60 | 5.0 | 6.0 | 0.00 | 0.92 | 0.18 | 96 | 1004.4 |
| 20260904100730 | 56 | 58 | 1.0 | 6.0 | 0.00 | 0.92 | 0.18 | 95 | 1004.5 |
| 20260904100230 | 56 | 0 | 0.0 | 0.0 | 0.00 | 0.92 | 0.18 | 95 | 1004.5 |
| 20260904095730 | 56 | 0 | 0.0 | 0.0 | 0.00 | 0.92 | 0.18 | 95 | 1004.5 |
| 20260904095230 | 56 | 0 | 0.0 | 5.0 | 0.00 | 0.92 | 0.18 | 95 | 1004.4 |
| 20260904094731 | 56 | 88 | 0.0 | 5.0 | 0.00 | 0.92 | 0.18 | 95 | 1004.4 |
| 20260904094230 | 56 | 119 | 0.0 | 5.0 | 0.00 | 0.92 | 0.18 | 95 | 1004.4 |
| 20260904093732 | 56 | 92 | 0.0 | 7.0 | 0.00 | 0.92 | 0.18 | 95 | 1004.4 |
| 20260904093230 | 56 | 120 | 0.0 | 7.0 | 0.00 | 0.92 | 0.18 | 95 | 1004.3 |
| 20260904092732 | 56 | 47 | 0.0 | 7.0 | 0.00 | 0.92 | 0.18 | 94 | 1004.2 |
| 20260904092231 | 56 | 96 | 0.0 | 10.0 | 0.00 | 0.92 | 0.18 | 94 | 1004.3 |
| 20260904091732 | 56 | 70 | 0.0 | 10.0 | 0.00 | 0.92 | 0.18 | 94 | 1004.2 |
| 20260904091230 | 56 | 29 | 4.0 | 10.0 | 0.00 | 0.92 | 0.18 | 94 | 1004.2 |
| 20260904090731 | 56 | 95 | 5.0 | 10.0 | 0.00 | 0.92 | 0.18 | 95 | 1004.1 |
| 20260904090230 | 56 | 50 | 1.0 | 13.0 | 0.00 | 0.92 | 0.18 | 94 | 1004.1 |
| 20260904085730 | 56 | 151 | 6.0 | 13.0 | 0.00 | 0.92 | 0.18 | 93 | 1004.1 |
| 20260904085230 | 56 | 74 | 7.0 | 13.0 | 0.00 | 0.92 | 0.18 | 93 | 1004.0 |
| 20260904084731 | 56 | 70 | 6.0 | 11.0 | 0.00 | 0.92 | 0.18 | 92 | 1004.1 |
| 20260904084230 | 56 | 91 | 6.0 | 10.0 | 0.00 | 0.92 | 0.18 | 91 | 1004.2 |
| 20260904083732 | 57 | 53 | 0.0 | 11.0 | 0.00 | 0.92 | 0.18 | 90 | 1004.2 |
| 20260904083230 | 57 | 42 | 2.0 | 11.0 | 0.00 | 0.92 | 0.18 | 91 | 1004.2 |
| 20260904082731 | 57 | 49 | 4.0 | 11.0 | 0.00 | 0.92 | 0.18 | 90 | 1004.1 |
| 20260904082230 | 57 | 58 | 0.0 | 11.0 | 0.00 | 0.92 | 0.18 | 91 | 1004.1 |
| 20260904081731 | 57 | 0 | 0.0 | 11.0 | 0.00 | 0.92 | 0.18 | 92 | 1004.1 |
| 20260904081230 | 57 | 61 | 0.0 | 14.0 | 0.00 | 0.92 | 0.18 | 92 | 1004.0 |
| 20260904080730 | 56 | 42 | 6.0 | 14.0 | 0.00 | 0.92 | 0.18 | 91 | 1004.0 |
| 20260904080230 | 56 | 30 | 0.0 | 14.0 | 0.00 | 0.92 | 0.18 | 93 | 1003.8 |
| 20260904075731 | 56 | 35 | 6.0 | 10.0 | 0.00 | 0.92 | 0.18 | 93 | 1003.9 |
| 20260904075230 | 56 | 70 | 2.0 | 10.0 | 0.00 | 0.92 | 0.18 | 94 | 1003.9 |
| 20260904074731 | 56 | 53 | 1.0 | 10.0 | 0.00 | 0.92 | 0.18 | 94 | 1003.9 |
| 20260904074230 | 56 | 64 | 5.0 | 14.0 | 0.00 | 0.92 | 0.18 | 95 | 1003.9 |
| 20260904073733 | 56 | 68 | 0.0 | 14.0 | 0.00 | 0.92 | 0.18 | 95 | 1003.9 |
| 20260904073230 | 56 | 50 | 4.0 | 14.0 | 0.00 | 0.92 | 0.18 | 95 | 1004.0 |
| 20260904072731 | 56 | 105 | 7.0 | 11.0 | 0.00 | 0.92 | 0.18 | 96 | 1004.0 |
| 20260904072231 | 56 | 56 | 2.0 | 7.0 | 0.00 | 0.92 | 0.18 | 96 | 1003.8 |
| 20260904071731 | 56 | 46 | 3.0 | 7.0 | 0.00 | 0.92 | 0.18 | 96 | 1003.9 |
| 20260904071230 | 56 | 36 | 2.0 | 7.0 | 0.00 | 0.92 | 0.18 | 96 | 1003.9 |
| 20260904070731 | 56 | 57 | 1.0 | 7.0 | 0.00 | 0.92 | 0.18 | 96 | 1003.9 |
| 20260904070230 | 56 | 71 | 4.0 | 13.0 | 0.00 | 0.92 | 0.18 | 96 | 1003.9 |
| 20260904065732 | 56 | 60 | 4.0 | 13.0 | 0.00 | 0.92 | 0.18 | 96 | 1003.9 |
| 20260904065230 | 56 | 64 | 6.0 | 13.0 | 0.00 | 0.92 | 0.18 | 96 | 1003.9 |
| 20260904064730 | 56 | 88 | 7.0 | 10.0 | 0.00 | 0.92 | 0.18 | 96 | 1003.9 |
| 20260904064230 | 56 | 50 | 5.0 | 10.0 | 0.00 | 0.92 | 0.18 | 96 | 1003.9 |
| 20260904063731 | 56 | 53 | 6.0 | 10.0 | 0.00 | 0.92 | 0.18 | 96 | 1003.9 |
| 20260904063231 | 56 | 46 | 7.0 | 10.0 | 0.00 | 0.92 | 0.18 | 97 | 1003.9 |
| 20260904062730 | 56 | 70 | 3.0 | 10.0 | 0.00 | 0.92 | 0.18 | 97 | 1003.9 |
| 20260904062230 | 56 | 51 | 5.0 | 10.0 | 0.00 | 0.92 | 0.18 | 97 | 1003.9 |
| 20260904061730 | 56 | 65 | 3.0 | 10.0 | 0.00 | 0.92 | 0.18 | 97 | 1004.0 |
| 20260904061230 | 56 | 74 | 5.0 | 10.0 | 0.00 | 0.92 | 0.18 | 97 | 1004.1 |
| 20260904060732 | 56 | 50 | 6.0 | 11.0 | 0.00 | 0.92 | 0.18 | 98 | 1004.1 |
| 20260904060230 | 56 | 49 | 7.0 | 11.0 | 0.00 | 0.92 | 0.18 | 98 | 1004.1 |
| 20260904055730 | 56 | 61 | 4.0 | 11.0 | 0.00 | 0.92 | 0.18 | 99 | 1004.2 |
| 20260904055230 | 56 | 36 | 8.0 | 9.0 | 0.00 | 0.92 | 0.18 | 99 | 1004.2 |
| 20260904054732 | 56 | 51 | 2.0 | 8.0 | 0.00 | 0.92 | 0.18 | 100 | 1004.2 |
| 20260904054230 | 56 | 58 | 4.0 | 8.0 | 0.00 | 0.92 | 0.18 | 100 | 1004.2 |
| 20260904053730 | 56 | 68 | 1.0 | 6.0 | 0.00 | 0.92 | 0.18 | 100 | 1004.3 |
| 20260904053230 | 56 | 44 | 0.0 | 4.0 | 0.04 | 0.92 | 0.18 | 100 | 1004.3 |
| 20260904052731 | 56 | 0 | 0.0 | 3.0 | 0.04 | 0.92 | 0.18 | 100 | 1004.3 |
| 20260904052230 | 56 | 64 | 0.0 | 5.0 | 0.06 | 0.92 | 0.18 | 100 | 1004.4 |
| 20260904051730 | 56 | 68 | 0.0 | 5.0 | 0.06 | 0.92 | 0.18 | 100 | 1004.4 |
| 20260904051230 | 56 | 47 | 0.0 | 5.0 | 0.09 | 0.92 | 0.18 | 100 | 1004.4 |
| 20260904050731 | 56 | 71 | 1.0 | 6.0 | 0.09 | 0.92 | 0.18 | 100 | 1004.4 |
| 20260904050230 | 56 | 67 | 0.0 | 6.0 | 0.09 | 0.92 | 0.18 | 100 | 1004.4 |
| 20260904045731 | 56 | 60 | 4.0 | 6.0 | 0.09 | 0.92 | 0.18 | 100 | 1004.4 |
| 20260904045230 | 56 | 53 | 5.0 | 5.0 | 0.09 | 0.92 | 0.18 | 100 | 1004.4 |
| 20260904044730 | 56 | 71 | 0.0 | 2.0 | 0.09 | 0.92 | 0.18 | 99 | 1004.4 |
| 20260904044230 | 56 | 0 | 0.0 | 0.0 | 0.10 | 0.92 | 0.18 | 99 | 1004.4 |
| 20260904043730 | 56 | 0 | 0.0 | 0.0 | 0.10 | 0.92 | 0.18 | 99 | 1004.5 |
| 20260904043230 | 56 | 0 | 0.0 | 0.0 | 0.06 | 0.82 | 0.17 | 99 | 1004.5 |
| 20260904042730 | 56 | 0 | 0.0 | 0.0 | 0.06 | 0.82 | 0.14 | 99 | 1004.5 |
| 20260904042230 | 56 | 0 | 0.0 | 0.0 | 0.04 | 0.82 | 0.13 | 99 | 1004.5 |
| 20260904041730 | 56 | 0 | 0.0 | 0.0 | 0.04 | 0.82 | 0.12 | 99 | 1004.5 |
| 20260904041230 | 56 | 0 | 0.0 | 0.0 | 0.01 | 0.82 | 0.10 | 99 | 1004.5 |
| 20260904040730 | 56 | 0 | 0.0 | 0.0 | 0.01 | 0.82 | 0.09 | 99 | 1004.4 |
| 20260904040230 | 56 | 0 | 0.0 | 5.0 | 0.02 | 0.82 | 0.09 | 99 | 1004.3 |
| 20260904035730 | 56 | 44 | 0.0 | 5.0 | 0.02 | 0.82 | 0.09 | 99 | 1004.3 |
| 20260904035230 | 56 | 54 | 0.0 | 5.0 | 0.03 | 0.82 | 0.09 | 99 | 1004.2 |
| 20260904034730 | 56 | 0 | 0.0 | 0.0 | 0.03 | 0.82 | 0.09 | 99 | 1004.2 |
| 20260904034230 | 56 | 0 | 0.0 | 0.0 | 0.04 | 0.82 | 0.09 | 99 | 1004.3 |
| 20260904033731 | 56 | 0 | 0.0 | 8.0 | 0.04 | 0.82 | 0.08 | 99 | 1004.2 |
| 20260904033230 | 56 | 84 | 0.0 | 8.0 | 0.05 | 0.78 | 0.08 | 99 | 1004.1 |
| 20260904032730 | 56 | 79 | 0.0 | 8.0 | 0.05 | 0.78 | 0.08 | 99 | 1004.0 |
| 20260904032230 | 56 | 0 | 0.0 | 6.0 | 0.05 | 0.78 | 0.08 | 99 | 1003.9 |
| 20260904031730 | 57 | 98 | 0.0 | 6.0 | 0.05 | 0.78 | 0.08 | 99 | 1003.9 |
| 20260904031230 | 57 | 0 | 0.0 | 3.0 | 0.07 | 0.78 | 0.08 | 99 | 1004.1 |
| 20260904030730 | 57 | 61 | 0.0 | 6.0 | 0.07 | 0.78 | 0.08 | 99 | 1004.0 |
| 20260904030230 | 57 | 57 | 0.0 | 6.0 | 0.07 | 0.78 | 0.08 | 99 | 1003.9 |
| 20260904025730 | 57 | 113 | 0.0 | 6.0 | 0.07 | 0.78 | 0.07 | 99 | 1003.9 |
| 20260904025231 | 57 | 113 | 0.0 | 5.0 | 0.06 | 0.78 | 0.06 | 99 | 1003.9 |
| 20260904024731 | 57 | 0 | 0.0 | 5.0 | 0.06 | 0.78 | 0.06 | 99 | 1003.9 |
| 20260904024231 | 57 | 77 | 0.0 | 5.0 | 0.04 | 0.78 | 0.05 | 99 | 1004.1 |
| 20260904023732 | 57 | 107 | 0.0 | 5.0 | 0.04 | 0.78 | 0.04 | 99 | 1003.9 |
| 20260904023230 | 58 | 123 | 1.0 | 5.0 | 0.03 | 0.74 | 0.03 | 99 | 1003.9 |
| 20260904022730 | 58 | 112 | 0.0 | 6.0 | 0.03 | 0.74 | 0.03 | 98 | 1003.9 |
| 20260904022230 | 58 | 95 | 0.0 | 6.0 | 0.03 | 0.74 | 0.03 | 98 | 1003.9 |
| 20260904021730 | 58 | 71 | 0.0 | 6.0 | 0.03 | 0.74 | 0.03 | 98 | 1003.9 |
| 20260904021230 | 58 | 0 | 0.0 | 0.0 | 0.01 | 0.74 | 0.02 | 98 | 1004.0 |
| 20260904020730 | 58 | 0 | 0.0 | 3.0 | 0.01 | 0.74 | 0.01 | 98 | 1003.9 |
| 20260904020230 | 59 | 0 | 0.0 | 3.0 | 0.00 | 0.74 | 0.01 | 98 | 1003.9 |
| 20260904015732 | 58 | 92 | 0.0 | 3.0 | 0.00 | 0.74 | 0.00 | 98 | 1003.9 |
| 20260904015230 | 59 | 0 | 0.0 | 5.0 | 0.00 | 0.74 | 0.00 | 98 | 1003.8 |
| 20260904014731 | 59 | 0 | 0.0 | 5.0 | 0.00 | 0.74 | 0.00 | 98 | 1003.9 |
| 20260904014230 | 59 | 68 | 0.0 | 5.0 | 0.00 | 0.74 | 0.00 | 98 | 1003.9 |
| 20260904013730 | 59 | 0 | 0.0 | 6.0 | 0.00 | 0.74 | 0.00 | 98 | 1003.9 |
| 20260904013230 | 58 | 0 | 0.0 | 6.0 | 0.00 | 0.74 | 0.00 | 98 | 1003.9 |
| 20260904012730 | 58 | 121 | 0.0 | 6.0 | 0.00 | 0.74 | 0.00 | 98 | 1003.9 |
| 20260904012231 | 58 | 0 | 0.0 | 0.0 | 0.00 | 0.74 | 0.00 | 98 | 1003.9 |
| 20260904011730 | 58 | 0 | 0.0 | 0.0 | 0.00 | 0.74 | 0.00 | 98 | 1004.0 |
| 20260904011230 | 58 | 0 | 0.0 | 4.0 | 0.00 | 0.74 | 0.00 | 98 | 1003.9 |
| 20260904010730 | 58 | 0 | 0.0 | 4.0 | 0.00 | 0.74 | 0.00 | 98 | 1003.9 |
| 20260904010230 | 58 | 85 | 0.0 | 4.0 | 0.00 | 0.74 | 0.00 | 98 | 1003.9 |
| 20260904005730 | 59 | 113 | 0.0 | 3.0 | 0.00 | 0.74 | 0.00 | 98 | 1003.9 |
| 20260904005230 | 59 | 0 | 0.0 | 0.0 | 0.00 | 0.74 | 0.00 | 98 | 1003.9 |
| 20260904004730 | 59 | 0 | 0.0 | 6.0 | 0.00 | 0.74 | 0.00 | 98 | 1004.0 |
| 20260904004230 | 59 | 149 | 0.0 | 6.0 | 0.00 | 0.74 | 0.00 | 98 | 1003.9 |
| 20260904003730 | 59 | 215 | 1.0 | 6.0 | 0.00 | 0.74 | 0.00 | 98 | 1003.9 |
| 20260904003230 | 59 | 0 | 0.0 | 0.0 | 0.01 | 0.74 | 0.00 | 98 | 1004.0 |
| 20260904002732 | 59 | 0 | 0.0 | 0.0 | 0.01 | 0.74 | 0.00 | 98 | 1004.0 |
| 20260904002230 | 59 | 0 | 0.0 | 8.0 | 0.01 | 0.74 | 0.00 | 98 | 1004.0 |
| 20260904001730 | 59 | 107 | 0.0 | 8.0 | 0.01 | 0.74 | 0.00 | 98 | 1004.0 |
| 20260904001230 | 59 | 120 | 0.0 | 8.0 | 0.02 | 0.74 | 0.00 | 98 | 1003.9 |
| 20260904000730 | 59 | 0 | 0.0 | 0.0 | 0.02 | 0.74 | 0.00 | 98 | 1003.9 |
| 20260904000230 | 59 | 0 | 0.0 | 5.0 | 0.04 | 0.74 | 0.00 | 98 | 1003.9 |
| 20260903235730 | 59 | 235 | 0.0 | 5.0 | 0.04 | 0.74 | 0.00 | 98 | 1004.0 |
| 20260903235230 | 59 | 215 | 0.0 | 5.0 | 0.04 | 0.74 | 0.00 | 98 | 1004.0 |
| 20260903234732 | 59 | 0 | 0.0 | 0.0 | 0.04 | 0.74 | 0.00 | 98 | 1004.0 |
| 20260903234231 | 59 | 0 | 0.0 | 0.0 | 0.04 | 0.74 | 0.00 | 98 | 1004.0 |
| 20260903233730 | 59 | 0 | 0.0 | 8.0 | 0.04 | 0.74 | 0.00 | 98 | 1004.0 |
| 20260903233230 | 59 | 91 | 0.0 | 8.0 | 0.04 | 0.74 | 0.00 | 98 | 1004.0 |
| 20260903232730 | 59 | 106 | 0.0 | 8.0 | 0.04 | 0.73 | 0.73 | 98 | 1004.1 |
| 20260903232230 | 59 | 96 | 0.0 | 4.0 | 0.04 | 0.73 | 0.73 | 98 | 1004.1 |
| 20260903231730 | 59 | 0 | 1.0 | 4.0 | 0.04 | 0.73 | 0.73 | 98 | 1004.3 |
| 20260903231230 | 59 | 0 | 0.0 | 4.0 | 0.04 | 0.72 | 0.72 | 98 | 1004.3 |
| 20260903230730 | 59 | 96 | 0.0 | 4.0 | 0.04 | 0.72 | 0.72 | 98 | 1004.3 |
| 20260903230230 | 59 | 0 | 0.0 | 0.0 | 0.04 | 0.71 | 0.71 | 98 | 1004.3 |
| 20260903225730 | 59 | 0 | 0.0 | 0.0 | 0.04 | 0.71 | 0.71 | 98 | 1004.4 |
| 20260903225230 | 60 | 0 | 0.0 | 0.0 | 0.04 | 0.70 | 0.70 | 98 | 1004.4 |
| 20260903224730 | 59 | 0 | 0.0 | 0.0 | 0.04 | 0.70 | 0.70 | 98 | 1004.3 |
| 20260903224230 | 59 | 0 | 0.0 | 0.0 | 0.04 | 0.70 | 0.70 | 98 | 1004.4 |
| 20260903223730 | 59 | 0 | 0.0 | 0.0 | 0.04 | 0.70 | 0.70 | 97 | 1004.4 |
| 20260903223230 | 58 | 0 | 0.0 | 0.0 | 0.03 | 0.70 | 0.70 | 97 | 1004.4 |
| 20260903222730 | 58 | 0 | 0.0 | 6.0 | 0.03 | 0.69 | 0.69 | 97 | 1004.4 |
| 20260903222230 | 58 | 32 | 0.0 | 6.0 | 0.05 | 0.69 | 0.69 | 97 | 1004.4 |
| 20260903221730 | 58 | 68 | 0.0 | 6.0 | 0.05 | 0.69 | 0.69 | 97 | 1004.4 |
| 20260903221230 | 58 | 95 | 0.0 | 6.0 | 0.08 | 0.68 | 0.68 | 97 | 1004.4 |
| 20260903220730 | 59 | 79 | 0.0 | 6.0 | 0.08 | 0.68 | 0.68 | 97 | 1004.3 |
| 20260903220230 | 59 | 81 | 0.0 | 10.0 | 0.06 | 0.67 | 0.67 | 97 | 1004.4 |
| 20260903215730 | 59 | 0 | 0.0 | 10.0 | 0.06 | 0.67 | 0.66 | 96 | 1004.4 |
| 20260903215230 | 59 | 78 | 0.0 | 10.0 | 0.06 | 0.67 | 0.66 | 96 | 1004.4 |
| 20260903214730 | 59 | 148 | 0.0 | 6.0 | 0.06 | 0.67 | 0.66 | 96 | 1004.3 |
| 20260903214230 | 59 | 65 | 0.0 | 6.0 | 0.07 | 0.67 | 0.66 | 96 | 1004.3 |
| 20260903213730 | 59 | 121 | 0.0 | 6.0 | 0.07 | 0.67 | 0.66 | 96 | 1004.4 |
| 20260903213230 | 59 | 95 | 0.0 | 7.0 | 0.07 | 0.66 | 0.66 | 95 | 1004.4 |
| 20260903212730 | 59 | 0 | 0.0 | 7.0 | 0.07 | 0.66 | 0.66 | 95 | 1004.5 |
| 20260903212230 | 59 | 0 | 0.0 | 7.0 | 0.05 | 0.66 | 0.66 | 95 | 1004.6 |
| 20260903211730 | 59 | 189 | 0.0 | 10.0 | 0.05 | 0.64 | 0.64 | 94 | 1004.6 |
| 20260903211230 | 59 | 0 | 1.0 | 10.0 | 0.01 | 0.62 | 0.62 | 94 | 1004.8 |
| 20260903210730 | 59 | 92 | 0.0 | 10.0 | 0.01 | 0.61 | 0.60 | 94 | 1004.6 |
| 20260903210230 | 59 | 78 | 1.0 | 9.0 | 0.01 | 0.61 | 0.60 | 93 | 1004.5 |
| 20260903205730 | 60 | 100 | 0.0 | 9.0 | 0.01 | 0.61 | 0.60 | 93 | 1004.4 |
| 20260903205230 | 60 | 96 | 3.0 | 7.0 | 0.01 | 0.61 | 0.60 | 92 | 1004.5 |
| 20260903204730 | 60 | 100 | 0.0 | 7.0 | 0.01 | 0.61 | 0.60 | 92 | 1004.4 |
| 20260903204230 | 60 | 95 | 2.0 | 9.0 | 0.00 | 0.61 | 0.60 | 90 | 1004.4 |
| 20260903203731 | 61 | 208 | 4.0 | 9.0 | 0.00 | 0.61 | 0.59 | 91 | 1004.5 |
| 20260903203230 | 61 | 72 | 0.0 | 9.0 | 0.00 | 0.63 | 0.59 | 93 | 1004.4 |
| 20260903202730 | 61 | 112 | 3.0 | 11.0 | 0.00 | 0.63 | 0.59 | 93 | 1004.3 |
| 20260903202232 | 61 | 117 | 6.0 | 11.0 | 0.00 | 0.63 | 0.59 | 92 | 1004.3 |
| 20260903201730 | 61 | 102 | 2.0 | 11.0 | 0.00 | 0.63 | 0.59 | 96 | 1004.4 |
| 20260903201230 | 60 | 120 | 0.0 | 9.0 | 0.01 | 0.63 | 0.59 | 97 | 1004.4 |
| 20260903200730 | 60 | 134 | 5.0 | 9.0 | 0.01 | 0.63 | 0.59 | 97 | 1004.4 |
| 20260903200230 | 60 | 109 | 4.0 | 9.0 | 0.01 | 0.63 | 0.59 | 98 | 1004.4 |
| 20260903195730 | 59 | 128 | 0.0 | 9.0 | 0.01 | 0.63 | 0.59 | 98 | 1004.5 |
| 20260903195230 | 58 | 93 | 0.0 | 7.0 | 0.02 | 0.63 | 0.59 | 99 | 1004.5 |
| 20260903194735 | 58 | 91 | 1.0 | 7.0 | 0.02 | 0.63 | 0.59 | 99 | 1004.6 |
| 20260903194230 | 57 | 137 | 0.0 | 7.0 | 0.02 | 0.63 | 0.59 | 99 | 1004.6 |
| 20260903193730 | 57 | 79 | 2.0 | 5.0 | 0.02 | 0.63 | 0.59 | 99 | 1004.8 |
| 20260903193230 | 57 | 0 | 0.0 | 7.0 | 0.02 | 0.74 | 0.59 | 99 | 1004.9 |
| 20260903192730 | 57 | 123 | 0.0 | 7.0 | 0.02 | 0.74 | 0.59 | 99 | 1004.9 |
| 20260903192230 | 57 | 89 | 1.0 | 7.0 | 0.04 | 0.74 | 0.59 | 99 | 1005.0 |
| 20260903191730 | 57 | 127 | 2.0 | 6.0 | 0.04 | 0.74 | 0.59 | 98 | 1005.1 |
| 20260903191230 | 57 | 100 | 1.0 | 6.0 | 0.04 | 0.74 | 0.59 | 98 | 1005.1 |
| 20260903190730 | 57 | 95 | 0.0 | 4.0 | 0.04 | 0.74 | 0.58 | 98 | 1005.0 |
| 20260903190230 | 57 | 148 | 0.0 | 4.0 | 0.05 | 0.74 | 0.58 | 98 | 1005.1 |
| 20260903185730 | 57 | 81 | 0.0 | 3.0 | 0.05 | 0.74 | 0.58 | 98 | 1005.0 |
| 20260903185230 | 58 | 140 | 0.0 | 4.0 | 0.05 | 0.74 | 0.58 | 98 | 1005.0 |
| 20260903184730 | 58 | 154 | 0.0 | 4.0 | 0.05 | 0.74 | 0.57 | 98 | 1005.1 |
| 20260903184230 | 58 | 137 | 0.0 | 4.0 | 0.05 | 0.74 | 0.57 | 98 | 1005.0 |
| 20260903183731 | 58 | 0 | 0.0 | 4.0 | 0.05 | 0.74 | 0.57 | 98 | 1005.1 |
| 20260903183230 | 58 | 0 | 0.0 | 4.0 | 0.05 | 0.76 | 0.57 | 99 | 1005.1 |
| 20260903182730 | 58 | 75 | 0.0 | 4.0 | 0.05 | 0.76 | 0.57 | 98 | 1005.1 |
| 20260903182230 | 58 | 205 | 0.0 | 4.0 | 0.04 | 0.76 | 0.56 | 98 | 1005.1 |
| 20260903181730 | 58 | 67 | 1.0 | 4.0 | 0.04 | 0.76 | 0.55 | 98 | 1005.0 |
| 20260903181231 | 58 | 67 | 0.0 | 4.0 | 0.03 | 0.76 | 0.54 | 98 | 1005.1 |
| 20260903180730 | 58 | 60 | 0.0 | 5.0 | 0.03 | 0.76 | 0.54 | 98 | 1005.1 |
| 20260903180230 | 58 | 180 | 0.0 | 5.0 | 0.02 | 0.76 | 0.54 | 98 | 1005.1 |
| 20260903175730 | 58 | 175 | 0.0 | 5.0 | 0.02 | 0.76 | 0.53 | 98 | 1005.1 |
| 20260903175230 | 58 | 0 | 0.0 | 4.0 | 0.02 | 0.76 | 0.53 | 98 | 1005.0 |
| 20260903174730 | 58 | 0 | 0.0 | 4.0 | 0.02 | 0.76 | 0.52 | 98 | 1005.0 |
| 20260903174230 | 58 | 0 | 0.0 | 4.0 | 0.04 | 0.76 | 0.52 | 98 | 1005.0 |
| 20260903173730 | 58 | 303 | 0.0 | 8.0 | 0.04 | 0.76 | 0.52 | 98 | 1005.0 |
| 20260903173230 | 58 | 147 | 0.0 | 8.0 | 0.06 | 0.78 | 0.52 | 98 | 1004.9 |
| 20260903172730 | 58 | 208 | 0.0 | 8.0 | 0.06 | 0.78 | 0.52 | 98 | 1004.9 |
| 20260903172230 | 58 | 196 | 1.0 | 9.0 | 0.05 | 0.78 | 0.52 | 98 | 1004.9 |
| 20260903171730 | 59 | 194 | 1.0 | 9.0 | 0.05 | 0.78 | 0.51 | 98 | 1004.7 |
| 20260903171230 | 59 | 149 | 0.0 | 9.0 | 0.05 | 0.78 | 0.51 | 98 | 1004.7 |